[[{"header":{"parameterUnit":"m.s-1","parameterCategory":1,"la1":30.2991,"la2":30.254,"lo1":-89.0895,"lo2":-89.0444,"dy":0.0017,"dx":0.0017,"nx":28,"ny":28,"refTime":"2024-09-29T03:00:00:Z","depth":0,"parameterNumber":2,"parameterNumberName":"U-component_of_WINDS"},"data":[0,0,0,0,0,0,0,0,0,0,0,0,0,0,0,0,0,0,0,0,0,0,0,0,0,0,0,0,0,0,0,0,0,0,0,0,0,0,0,0,0,0,0,0,0,0,0,0,0,0,0,0,0,0,0,0,0,0,5.53,5.5302,0,5.5482,5.5484,5.5486,5.5408,5.5404,5.54,5.5395,5.5583,5.5592,5.5601,0,0,0,0,0,0,0,0,0,0,0,0,0,5.4887,5.4895,5.53,5.5303,5.5305,5.5481,5.5484,5.5486,5.5409,5.5404,5.5398,5.5393,5.558,5.5591,5.5602,0,0,0,0,0,0,0,0,0,0,0,0,0,5.5067,5.4898,5.53,5.5287,5.5288,5.5481,5.5484,5.5487,5.541,5.5404,5.5397,5.5391,5.5576,5.559,5.5603,5.5819,0,0,5.5645,5.5651,0,0,0,0,0,0,0,0,5.5057,5.5083,5.5287,5.5289,5.529,5.5416,5.5407,5.5599,5.5412,5.5364,5.5395,5.5388,5.5533,5.555,5.5598,5.5828,5.5836,5.5646,5.5654,5.566,5.5664,0,0,0,0,0,0,0,5.5045,5.5074,5.5372,5.529,5.5292,5.5273,5.5291,5.5443,5.5483,5.5368,5.5362,5.5385,5.5532,5.5585,5.5602,5.5839,5.5646,5.5658,5.5666,5.5672,5.6252,5.6259,0,0,0,0,0,0,5.5032,5.5064,5.5366,5.5377,5.5155,5.5286,5.5306,5.5382,5.5481,5.549,5.539,5.5381,5.5565,5.5586,5.5608,5.5865,5.566,5.5673,5.5681,5.6245,5.6254,5.6262,0,0,0,0,0,0,5.5024,5.506,5.5359,5.522,5.5256,5.53,5.5386,5.5389,5.5442,5.5498,5.5505,5.5437,5.5561,5.5589,5.5767,5.5871,5.5679,5.5691,5.6236,5.6248,5.6258,5.6383,0,0,0,0,0,0,5.5012,5.5057,5.514,5.5222,5.5264,5.5515,5.5392,5.5397,5.5465,5.5454,5.5544,5.5553,5.5558,5.5747,5.578,5.5886,5.5702,5.6227,5.6241,5.6254,5.637,5.6397,5.642,0,0,0,0,0,5.4997,5.5169,5.5144,5.5181,5.5368,5.5521,5.5545,5.5547,5.5474,5.5557,5.5593,5.555,5.5855,5.5766,5.5803,5.5914,5.6221,5.6237,5.6253,5.6358,5.6391,5.6419,0,0,0,0,0,0,5.5099,5.518,5.5153,5.5356,5.5432,5.5507,5.5612,5.5582,5.5681,5.5666,5.5665,5.5686,5.5869,5.591,5.5809,5.6127,5.6026,5.6051,5.6094,5.6126,5.615,5.6136,5.5713,0,0,0,0,0,5.5145,5.5262,5.5326,5.5499,5.5538,5.5569,5.5636,5.5631,5.5709,5.5741,5.579,5.5869,5.5981,5.6056,5.6164,5.6376,5.6393,5.6471,5.6496,5.6516,5.6537,5.6649,5.6684,5.6315,5.6315,5.6315,0,0,5.5241,5.5299,5.5374,5.5521,5.5579,5.5699,5.5597,5.5729,5.5818,5.5761,5.5931,5.597,5.6057,5.6252,5.6341,5.6292,5.6642,5.6537,5.6553,5.6562,5.667,5.6704,5.6735,5.6326,5.6324,5.6322,0,0,5.5477,5.5534,5.5683,5.5743,5.5832,5.5851,5.5887,5.5967,5.599,5.616,5.6119,5.6225,5.6421,5.6484,5.6541,5.68,5.6762,5.6835,5.6966,5.7075,5.7104,5.713,5.722,5.7252,5.6856,5.6856,5.6856,0,5.5586,5.5765,5.5764,5.5899,5.5964,5.5917,5.6067,5.6126,5.6246,5.6292,5.6235,5.6477,5.6533,5.6741,5.6804,5.6853,5.6892,5.6824,5.71,5.7126,5.715,5.7235,5.7269,5.6864,5.6863,5.6862,5.6862,0,5.5893,5.6018,5.6128,5.6243,5.6321,5.6463,5.6483,5.6562,5.655,5.6574,5.6747,5.6812,5.6931,5.698,5.6971,5.7186,5.7152,5.7099,5.6997,5.7193,5.7273,5.7306,5.6876,5.6873,5.687,5.6868,0,0,5.6198,5.6309,5.6349,5.64,5.6494,5.659,5.673,5.6845,5.6911,5.6996,5.7112,5.7277,5.7227,5.7293,5.729,5.7386,5.7583,5.732,5.7322,5.7364,5.7822,5.786,5.7898,5.756,5.7566,5.7571,5.7814,0,5.6439,5.6683,5.6685,5.6909,5.7023,5.698,5.7101,5.7172,5.7199,5.7299,5.7329,5.7445,5.7372,5.7411,5.7504,5.754,5.7675,5.7522,5.7666,5.7671,5.7643,5.7941,5.7982,5.8208,5.7845,5.7851,5.7855,0,5.6753,5.6846,5.7081,5.7156,5.7204,5.7313,5.7417,5.7515,5.7593,5.7605,5.7678,5.766,5.7801,5.7696,5.789,5.7786,5.7845,5.7871,5.788,5.7892,5.7773,5.7958,5.828,5.8313,5.7905,5.7901,5.7897,0,5.6949,5.7133,5.7296,5.7341,5.7434,5.7511,5.7553,5.7625,5.7693,5.7784,5.7828,5.7935,5.7994,5.8077,5.8087,5.8011,5.8281,5.8178,5.8294,5.8294,5.8352,5.8348,5.8686,5.8394,5.8394,5.8393,5.8392,0,5.7217,5.7362,5.7385,5.7485,5.7646,5.7647,5.7806,5.7841,5.7906,5.8012,5.7982,5.8082,5.8091,5.8194,5.8204,5.8361,5.8388,5.8401,5.8402,5.8403,5.8401,5.844,5.8424,5.8402,5.84,5.8398,5.8397,0,5.7462,5.7484,5.7658,5.7731,5.7752,5.7867,5.7929,5.8024,5.8048,5.8182,5.8214,5.8251,5.837,5.839,5.8531,5.8537,5.8725,5.871,5.8698,5.8695,5.8809,5.8797,5.9182,5.9231,5.891,5.8913,5.8916,0,5.7631,5.7741,5.7824,5.7892,5.7938,5.8049,5.8118,5.8123,5.8196,5.8292,5.8376,5.8492,5.8585,5.8778,5.8817,5.8924,5.891,5.9038,5.8926,5.8923,5.8909,5.8901,5.8911,5.9059,5.9062,5.9065,5.9068,0,5.7926,5.7931,5.8031,5.8135,5.8217,5.8299,5.8377,5.8434,5.8449,5.8532,5.8653,5.8726,5.8868,5.8983,5.9089,5.9132,5.9102,5.9103,5.9134,5.9136,5.9123,5.9128,5.8754,5.9093,5.9091,5.9089,5.9087,5.9086,5.8137,5.8231,5.8304,5.8416,5.8474,5.8547,5.8639,5.8673,5.8774,5.889,5.8887,5.9019,5.9093,5.9232,5.9282,5.9385,5.9344,5.9391,5.9403,5.9414,5.9423,5.9108,5.9405,5.9404,5.9404,5.9403,5.9403,0,5.8428,5.8473,5.8575,5.8684,5.8771,5.8735,5.8818,5.8894,5.901,5.9082,5.9173,5.9311,5.9422,5.947,5.9579,5.9652,5.9641,5.968,5.9673,5.9683,5.9456,5.9416,5.9687,5.9687,5.9687,5.9687,5.9687,5.9687,5.859,5.8748,5.8761,5.8946,5.899,5.9118,5.9168,5.9235,5.9291,5.9446,5.9538,5.9568,5.9629,5.9742,5.9841,5.9852,5.9893,5.9938,5.9943,5.9729,5.97,5.9672,5.9634,5.9947,5.9948,6.0161,6.0163,6.0165]},{"header":{"parameterUnit":"m.s-1","parameterCategory":1,"la1":30.2991,"la2":30.254,"lo1":-89.0895,"lo2":-89.0444,"dy":0.0017,"dx":0.0017,"nx":28,"ny":28,"refTime":"2024-09-29T03:00:00:Z","depth":0,"parameterNumber":3,"parameterNumberName":"V-component_of_WINDS"},"data":[0,0,0,0,0,0,0,0,0,0,0,0,0,0,0,0,0,0,0,0,0,0,0,0,0,0,0,0,0,0,0,0,0,0,0,0,0,0,0,0,0,0,0,0,0,0,0,0,0,0,0,0,0,0,0,0,0,0,1.7169,1.7169,0,1.722,1.7221,1.7222,1.7219,1.7219,1.7218,1.7217,1.7269,1.7271,1.7273,0,0,0,0,0,0,0,0,0,0,0,0,0,1.7066,1.7068,1.7169,1.7169,1.717,1.722,1.7221,1.7222,1.722,1.7219,1.7218,1.7217,1.7268,1.7271,1.7273,0,0,0,0,0,0,0,0,0,0,0,0,0,1.7113,1.7069,1.7169,1.7175,1.7176,1.722,1.7221,1.7222,1.722,1.7219,1.7218,1.7217,1.7268,1.7271,1.7274,1.7314,0,0,1.7283,1.7284,0,0,0,0,0,0,0,0,1.7111,1.7117,1.7174,1.7175,1.7176,1.7212,1.7204,1.7253,1.722,1.7203,1.7217,1.7216,1.7251,1.7255,1.7267,1.7317,1.7319,1.7283,1.7285,1.7287,1.7287,0,0,0,0,0,0,0,1.7108,1.7115,1.7189,1.7174,1.7176,1.7175,1.718,1.7213,1.7233,1.7205,1.7205,1.7211,1.7251,1.7264,1.7269,1.732,1.7283,1.7286,1.7288,1.7289,1.7403,1.7404,0,0,0,0,0,0,1.7103,1.7112,1.7188,1.7191,1.714,1.7177,1.7184,1.7202,1.7232,1.7236,1.7212,1.721,1.726,1.7265,1.727,1.7319,1.7286,1.7289,1.7291,1.7401,1.7403,1.7404,0,0,0,0,0,0,1.7101,1.711,1.7185,1.7152,1.7161,1.718,1.7201,1.7203,1.7216,1.7237,1.7241,1.7221,1.7259,1.7266,1.7303,1.7321,1.7291,1.7294,1.74,1.7402,1.7404,1.7416,0,0,0,0,0,0,1.7098,1.7109,1.7126,1.7152,1.7163,1.7218,1.7202,1.7205,1.7222,1.7221,1.7248,1.7251,1.7259,1.7298,1.7306,1.7324,1.7296,1.7399,1.7401,1.7403,1.7415,1.7418,1.7422,0,0,0,0,0,1.7094,1.7127,1.7126,1.7135,1.7184,1.7219,1.7225,1.7234,1.7223,1.7239,1.7252,1.725,1.7317,1.7302,1.7311,1.733,1.7398,1.74,1.7403,1.7413,1.7418,1.7422,0,0,0,0,0,0,1.7103,1.7131,1.713,1.7173,1.7194,1.7219,1.7239,1.7239,1.7263,1.7261,1.727,1.7276,1.7313,1.7325,1.7308,1.737,1.7356,1.736,1.7361,1.7365,1.7369,1.7365,1.7299,0,0,0,0,0,1.7109,1.7136,1.7159,1.7195,1.7205,1.722,1.7236,1.7241,1.7262,1.7271,1.7287,1.7308,1.7333,1.735,1.7375,1.7416,1.7421,1.7433,1.7437,1.744,1.7444,1.7464,1.747,1.7413,1.7413,1.7413,0,0,1.7124,1.7143,1.7159,1.7197,1.7213,1.724,1.7228,1.7257,1.7276,1.7275,1.7311,1.7323,1.7347,1.7385,1.7403,1.7397,1.746,1.7443,1.7445,1.7448,1.7468,1.7473,1.7478,1.7415,1.7414,1.7414,0,0,1.7164,1.7181,1.7212,1.7228,1.7253,1.7263,1.727,1.7295,1.7303,1.7339,1.7338,1.736,1.7405,1.7421,1.7435,1.7478,1.7477,1.7486,1.7505,1.7525,1.753,1.7534,1.7548,1.7553,1.749,1.749,1.749,0,1.7178,1.7219,1.7227,1.7256,1.7272,1.7272,1.7302,1.7318,1.7349,1.736,1.7352,1.7406,1.7422,1.7464,1.7474,1.7486,1.7493,1.7483,1.7528,1.7533,1.7536,1.755,1.7555,1.7491,1.7491,1.7491,1.7491,0,1.7235,1.7263,1.7284,1.7315,1.7333,1.7362,1.7374,1.7391,1.7394,1.7404,1.7439,1.7458,1.7486,1.7496,1.7499,1.7537,1.7532,1.7527,1.7513,1.7543,1.7555,1.7561,1.7492,1.7492,1.7492,1.7491,0,0,1.7283,1.7316,1.7323,1.7336,1.7363,1.7384,1.7413,1.744,1.7454,1.7475,1.7498,1.7535,1.7529,1.7545,1.7549,1.7567,1.7598,1.7559,1.7559,1.7565,1.764,1.7644,1.765,1.7597,1.7598,1.7599,1.7637,0,1.7324,1.7375,1.7383,1.7427,1.7452,1.7452,1.7476,1.7494,1.7504,1.7526,1.7536,1.7561,1.7552,1.7562,1.7579,1.7591,1.7613,1.7588,1.7618,1.7619,1.7611,1.7657,1.7661,1.7697,1.7643,1.7644,1.7644,0,1.738,1.7402,1.7449,1.7471,1.7481,1.7504,1.7528,1.7549,1.7569,1.7575,1.7591,1.7593,1.7621,1.7606,1.7644,1.7626,1.7639,1.7646,1.7648,1.765,1.7633,1.766,1.7709,1.7714,1.7652,1.7652,1.7651,0,1.7408,1.745,1.7483,1.7494,1.7521,1.7536,1.7547,1.7566,1.7581,1.7602,1.7612,1.7636,1.7649,1.7667,1.7674,1.7663,1.7711,1.7697,1.7716,1.7715,1.7726,1.7725,1.7777,1.7735,1.7735,1.7735,1.7735,0,1.7454,1.7482,1.7496,1.7517,1.7548,1.7555,1.7586,1.7597,1.7613,1.7635,1.7635,1.7655,1.7665,1.7685,1.7692,1.7721,1.7727,1.7732,1.7733,1.7731,1.7731,1.7739,1.7737,1.7736,1.7736,1.7736,1.7735,0,1.7491,1.7502,1.7537,1.7559,1.7565,1.7587,1.7604,1.7623,1.7632,1.7659,1.7666,1.768,1.7704,1.7713,1.7744,1.7747,1.7781,1.7781,1.7774,1.7775,1.7792,1.779,1.7851,1.7858,1.7812,1.7813,1.7813,0,1.7519,1.7541,1.7564,1.7579,1.759,1.7614,1.7629,1.7637,1.7652,1.7675,1.7691,1.7716,1.7736,1.7774,1.7786,1.7809,1.7808,1.7828,1.7812,1.7809,1.7807,1.7806,1.7807,1.7831,1.7831,1.7832,1.7832,0,1.7567,1.7571,1.7593,1.7616,1.7634,1.7653,1.7671,1.7683,1.7693,1.771,1.7735,1.775,1.778,1.7804,1.7827,1.7837,1.7836,1.7837,1.7842,1.7841,1.7836,1.7838,1.7782,1.7836,1.7835,1.7835,1.7835,1.7835,1.76,1.7619,1.7638,1.7661,1.7676,1.7692,1.7711,1.7721,1.7742,1.7767,1.777,1.7797,1.7814,1.7844,1.7856,1.7876,1.7871,1.7879,1.788,1.7882,1.7883,1.7833,1.788,1.788,1.788,1.788,1.788,0,1.7647,1.7659,1.7681,1.7706,1.7724,1.7721,1.7741,1.7756,1.7779,1.7796,1.7815,1.7843,1.7865,1.7878,1.7901,1.7914,1.7914,1.7919,1.7918,1.792,1.7887,1.788,1.7919,1.7919,1.7919,1.7919,1.7919,1.7919,1.7674,1.7705,1.771,1.7748,1.7759,1.7785,1.7796,1.7811,1.7824,1.7855,1.7873,1.7882,1.7896,1.7919,1.7939,1.7942,1.795,1.7956,1.7958,1.7927,1.7923,1.7919,1.7912,1.7958,1.7958,1.799,1.799,1.7991]}]]